Temp
2 2 1 1 1 1 0 1 0 3 2 3 1 1 0 1 1 0 0 0 0 0 0 0 1 1 0 -0 -1 -2 -2 -2 -2 -3 -3 -3 -3 -3 -3 -3 -3 -3 -3 -3
2 2 1 0 1 1 1 1 0 1 -0 1 -1 -1 -2 -2 -1 -1 -1 -1 -1 -1 -1 -1 -1 -0 -1 -1 -1 -2 -2 -2 -3 -3 -4 -4 -4 -4 -4 -4 -4 -4 -4 -4
-1 -1 -2 -3 2 2 2 1 0 -1 -1 -2 -2 -2 -2 -2 -2 -2 -2 -2 -2 -2 -2 -2 -2 -2 -2 -2 -2 -2 -2 -3 -3 -4 -4 -4 -4 -4 -5 -5 -5 -5 -5 -5
-3 -3 -6 -0 -1 -0 -1 -2 -2 -3 -4 -4 -3 -3 -4 -4 -3 -3 -3 -3 -3 -2 -2 -2 -2 -2 -3 -3 -3 -3 -3 -4 -4 -4 -4 -5 -5 -5 -5 -6 -6 -6 -6 -6
-4 -4 -2 -1 -0 -1 -1 -2 -3 -3 -3 -4 -4 -4 -4 -4 -4 -4 -4 -3 -3 -3 -3 -3 -3 -3 -4 -4 -4 -4 -4 -4 -5 -5 -5 -5 -6 -6 -6 -6 -6 -7 -7 -6
-4 -5 -6 -2 -2 -2 -2 -3 -3 -3 -3 -4 -4 -4 -4 -4 -4 -4 -5 -5 -5 -5 -4 -5 -5 -5 -5 -5 -5 -6 -6 -6 -6 -6 -6 -6 -6 -6 -6 -6 -7 -8 -7 -7
-6 -5 -4 -3 -2 -2 -3 -3 -3 -3 -4 -5 -5 -6 -6 -5 -5 -5 -5 -5 -5 -5 -5 -6 -6 -6 -6 -6 -6 -7 -7 -8 -8 -7 -7 -7 -7 -8 -8 -7 -7 -8 -8 -9
-6 -6 -5 -4 -4 -4 -3 -3 -4 -5 -6 -6 -6 -6 -6 -7 -6 -6 -6 -6 -7 -7 -7 -7 -7 -6 -7 -7 -7 -7 -8 -8 -8 -8 -8 -10 -9 -9 -9 -8 -9 -9 -9 -9
-4 -4 -4 -5 -5 -5 -5 -5 -6 -6 -6 -7 -7 -7 -8 -8 -7 -7 -8 -8 -8 -8 -8 -8 -8 -8 -8 -9 -9 -9 -9 -9 -9 -9 -10 -10 -10 -10 -10 -10 -9 -9 -10 -10
-5 -6 -6 -6 -6 -7 -7 -7 -7 -7 -8 -8 -8 -9 -9 -9 -9 -9 -9 -9 -9 -9 -9 -9 -9 -10 -10 -10 -10 -10 -11 -11 -11 -11 -11 -12 -12 -12 -12 -11 -12 -12 -11 -12
-7 -7 -7 -7 -7 -7 -7 -8 -8 -9 -9 -9 -10 -10 -10 -10 -10 -10 -11 -11 -11 -11 -12 -12 -12 -12 -12 -13 -13 -13 -13 -13 -13 -13 -14 -14 -14 -14 -14 -14 -14 -14 -14 -14
-8 -8 -8 -8 -8 -8 -8 -9 -10 -11 -12 -11 -11 -11 -11 -11 -12 -12 -12 -12 -12 -12 -12 -12 -13 -13 -13 -14 -14 -14 -14 -14 -14 -14 -14 -14 -14 -14 -14 -15 -15 -15 -16 -16
-8 -9 -9 -9 -9 -9 -11 -12 -13 -13 -12 -12 -12 -12 -12 -12 -12 -13 -13 -13 -13 -13 -13 -13 -14 -14 -14 -15 -15 -15 -15 -15 -15 -15 -15 -14 -14 -15 -15 -14 -15 -15 -15 -16
-9 -9 -10 -11 -12 -13 -14 -13 -13 -13 -13 -13 -13 -13 -13 -13 -13 -13 -13 -14 -14 -14 -14 -14 -15 -15 -15 -15 -15 -15 -15 -15 -15 -15 -15 -15 -16 -16 -16 -16 -16 -15 -16 -16
-11 -12 -13 -14 -14 -13 -13 -13 -13 -13 -13 -13 -13 -13 -13 -14 -14 -14 -14 -14 -15 -15 -15 -15 -15 -15 -15 -15 -15 -15 -15 -15 -16 -16 -16 -16 -16 -16 -16 -16 -16 -16 -16 -16
-14 -14 -14 -14 -14 -14 -14 -14 -14 -14 -14 -14 -14 -14 -14 -14 -15 -14 -14 -14 -15 -15 -15 -15 -15 -15 -16 -16 -15 -15 -16 -16 -17 -17 -17 -17 -17 -17 -17 -17 -16 -16 -16 -16
-14 -14 -15 -15 -15 -15 -14 -14 -14 -14 -14 -14 -14 -15 -15 -15 -15 -15 -15 -15 -15 -15 -15 -16 -16 -16 -16 -17 -16 -16 -17 -17 -17 -17 -17 -17 -17 -17 -17 -17 -17 -16 -16 -17
-15 -15 -15 -15 -15 -14 -14 -14 -14 -15 -15 -15 -15 -15 -15 -15 -15 -15 -15 -16 -16 -15 -16 -17 -17 -17 -17 -17 -17 -17 -17 -17 -17 -17 -17 -17 -17 -17 -17 -17 -17 -17 -17 -17
-15 -15 -15 -15 -15 -15 -15 -15 -15 -15 -16 -15 -15 -15 -15 -15 -16 -16 -16 -16 -16 -16 -16 -17 -17 -17 -17 -18 -18 -18 -17 -18 -17 -17 -17 -17 -17 -17 -17 -18 -18 -18 -18 -18
-15 -15 -15 -15 -15 -16 -16 -16 -16 -15 -15 -15 -16 -16 -16 -16 -16 -16 -16 -17 -17 -17 -17 -17 -17 -17 -17 -17 -18 -17 -18 -18 -18 -17 -17 -18 -18 -18 -18 -18 -18 -18 -18 -18
-15 -16 -16 -16 -15 -15 -15 -16 -16 -16 -16 -16 -16 -16 -16 -16 -16 -17 -17 -17 -17 -17 -17 -18 -18 -18 -18 -18 -18 -18 -18 -18 -18 -18 -18 -18 -18 -18 -18 -19 -19 -19 -18 -18
-16 -16 -16 -16 -16 -16 -16 -16 -16 -16 -16 -17 -17 -17 -17 -17 -17 -17 -17 -18 -17 -17 -18 -18 -18 -18 -18 -18 -18 -18 -18 -18 -18 -19 -19 -19 -19 -19 -19 -19 -19 -19 -18 -18
-16 -16 -17 -16 -16 -16 -16 -17 -17 -17 -17 -17 -17 -17 -17 -17 -17 -17 -16 -17 -17 -17 -18 -18 -18 -18 -18 -18 -18 -18 -18 -18 -18 -18 -19 -19 -19 -19 -19 -19 -19 -18 -18 -18
-17 -17 -17 -17 -17 -17 -17 -17 -17 -17 -17 -17 -17 -17 -17 -17 -16 -17 -17 -17 -17 -17 -17 -18 -18 -18 -18 -18 -18 -17 -18 -18 -18 -18 -18 -18 -19 -19 -19 -19 -19 -18 -18 -17
-17 -17 -17 -17 -17 -17 -17 -17 -17 -17 -17 -17 -17 -17 -17 -17 -17 -16 -17 -17 -17 -17 -18 -18 -18 -17 -17 -17 -17 -17 -17 -17 -17 -17 -18 -18 -18 -18 -18 -18 -18 -18 -17 -17
-17 -18 -18 -18 -18 -18 -17 -17 -17 -17 -17 -16 -17 -17 -17 -17 -17 -17 -17 -17 -17 -17 -17 -17 -17 -17 -17 -17 -16 -16 -16 -17 -17 -17 -17 -17 -18 -18 -18 -17 -17 -17 -17 -17
-18 -18 -18 -18 -18 -18 -18 -18 -17 -17 -17 -17 -16 -16 -16 -16 -16 -16 -17 -17 -17 -17 -17 -16 -16 -16 -16 -16 -16 -16 -16 -16 -17 -17 -17 -17 -17 -17 -17 -17 -17 -16 -16 -16
Height
3088 3088 3086 3085 3085 3084 3080 3080 3075 3071 3070 3075 3069 3068 3065 3063 3063 3061 3060 3059 3057 3056 3054 3053 3051 3050 3049 3048 3047 3045 3043 3043 3044 3044 3041 3039 3038 3035 3033 3031 3028 3026 3024 3021
3080 3081 3079 3075 3076 3072 3069 3067 3061 3062 3060 3066 3065 3062 3059 3057 3056 3055 3055 3054 3052 3050 3048 3047 3045 3043 3042 3041 3040 3037 3036 3037 3037 3036 3033 3031 3029 3026 3024 3022 3019 3016 3014 3012
3073 3074 3070 3063 3059 3059 3056 3054 3055 3053 3056 3055 3056 3056 3053 3053 3052 3051 3050 3048 3047 3045 3044 3042 3039 3038 3037 3035 3033 3031 3030 3030 3029 3027 3024 3022 3018 3015 3014 3011 3008 3005 3003 2999
3070 3071 3066 3053 3051 3050 3049 3047 3047 3048 3048 3048 3050 3051 3047 3047 3047 3046 3044 3043 3041 3039 3037 3035 3033 3031 3029 3027 3025 3022 3020 3018 3016 3014 3011 3009 3006 3004 3002 2999 2996 2993 2992 2988
3068 3062 3051 3050 3049 3047 3046 3043 3042 3043 3044 3044 3044 3045 3043 3042 3040 3038 3036 3034 3032 3030 3028 3027 3025 3022 3019 3016 3014 3013 3011 3008 3006 3003 3001 2998 2995 2991 2988 2986 2983 2980 2978 2976
3059 3058 3050 3042 3041 3041 3041 3038 3039 3039 3038 3038 3037 3037 3038 3036 3033 3031 3028 3024 3022 3020 3017 3015 3013 3010 3007 3004 3002 3000 2998 2996 2993 2991 2988 2985 2981 2978 2975 2971 2968 2966 2964 2962
3051 3049 3039 3038 3040 3040 3040 3038 3034 3033 3032 3032 3031 3029 3026 3025 3024 3021 3019 3016 3013 3009 3006 3004 3002 3001 2998 2995 2991 2989 2986 2983 2980 2976 2972 2968 2966 2963 2959 2956 2953 2951 2948 2948
3044 3045 3036 3032 3033 3036 3032 3029 3028 3026 3025 3024 3022 3020 3018 3015 3014 3013 3012 3008 3004 3002 2998 2995 2991 2988 2986 2983 2979 2975 2971 2967 2964 2960 2957 2953 2950 2948 2945 2943 2940 2939 2938 2938
3036 3031 3028 3026 3026 3026 3025 3023 3022 3020 3017 3016 3014 3012 3010 3008 3004 3000 2999 2997 2994 2991 2988 2984 2980 2976 2973 2969 2965 2962 2958 2954 2950 2946 2942 2939 2936 2935 2933 2930 2927 2927 2924 2922
3027 3022 3022 3022 3021 3019 3017 3017 3015 3013 3010 3008 3006 3004 3002 3000 2996 2993 2991 2988 2984 2981 2978 2975 2971 2967 2963 2959 2955 2951 2947 2943 2939 2934 2931 2929 2925 2923 2921 2920 2916 2911 2910 2908
3017 3015 3015 3013 3011 3010 3009 3007 3005 3003 3002 3000 2998 2997 2995 2993 2989 2986 2985 2981 2977 2973 2970 2966 2962 2959 2955 2950 2945 2940 2936 2933 2930 2926 2923 2920 2917 2914 2910 2908 2905 2901 2900 2897
3009 3009 3008 3006 3003 3002 3001 2999 2997 2996 2996 2994 2992 2991 2988 2986 2983 2980 2977 2973 2969 2966 2962 2958 2954 2950 2947 2941 2936 2931 2927 2924 2920 2916 2913 2911 2908 2905 2904 2900 2897 2893 2890 2886
3002 3001 3000 2998 2996 2995 2994 2993 2993 2993 2991 2989 2988 2984 2981 2979 2977 2973 2970 2965 2961 2957 2952 2947 2942 2939 2935 2931 2926 2922 2917 2914 2910 2906 2903 2899 2896 2891 2887 2887 2885 2883 2880 2877
2994 2993 2991 2990 2990 2989 2990 2990 2990 2989 2986 2984 2981 2979 2976 2972 2968 2964 2960 2956 2951 2946 2941 2936 2931 2927 2925 2919 2914 2911 2907 2903 2898 2894 2891 2887 2884 2880 2876 2873 2869 2868 2868 2865
2987 2987 2987 2988 2988 2988 2987 2985 2984 2982 2980 2978 2975 2971 2967 2962 2958 2953 2949 2944 2939 2934 2929 2925 2920 2916 2912 2907 2903 2899 2895 2891 2887 2883 2880 2876 2872 2869 2866 2863 2859 2857 2854 2852
2984 2985 2984 2984 2983 2983 2981 2980 2977 2975 2972 2969 2965 2961 2956 2951 2945 2941 2938 2933 2926 2921 2918 2913 2908 2904 2899 2896 2892 2888 2884 2881 2877 2873 2869 2866 2862 2859 2856 2853 2849 2846 2843 2839
2981 2980 2980 2979 2977 2976 2974 2973 2970 2966 2961 2957 2953 2948 2942 2937 2934 2930 2925 2920 2913 2908 2904 2899 2895 2892 2888 2885 2881 2877 2874 2870 2867 2863 2859 2855 2851 2848 2845 2842 2838 2835 2832 2829
2977 2976 2975 2973 2971 2969 2967 2964 2959 2954 2950 2945 2941 2936 2931 2926 2921 2917 2911 2905 2900 2896 2891 2885 2881 2877 2875 2873 2869 2866 2863 2860 2857 2853 2849 2845 2841 2838 2835 2832 2828 2825 2822 2820
2975 2972 2970 2967 2964 2960 2956 2952 2947 2943 2938 2934 2928 2924 2919 2915 2909 2904 2898 2893 2889 2882 2879 2873 2869 2865 2862 2860 2857 2853 2851 2848 2845 2841 2838 2834 2831 2828 2825 2822 2818 2816 2813 2811
2968 2965 2961 2958 2954 2950 2945 2941 2936 2931 2927 2922 2916 2911 2907 2903 2897 2892 2887 2882 2879 2872 2867 2863 2859 2855 2851 2848 2846 2842 2839 2836 2833 2831 2828 2824 2821 2818 2816 2813 2810 2808 2806 2804
2958 2954 2950 2947 2943 2939 2934 2929 2924 2919 2915 2910 2904 2899 2894 2890 2885 2881 2875 2870 2870 2864 2858 2854 2849 2845 2841 2838 2835 2832 2830 2827 2824 2821 2818 2815 2813 2811 2808 2805 2803 2800 2798 2796
2950 2945 2941 2937 2932 2927 2922 2917 2912 2907 2902 2897 2893 2888 2883 2878 2874 2871 2867 2862 2857 2854 2849 2844 2840 2837 2833 2830 2826 2823 2821 2818 2815 2812 2809 2807 2804 2803 2801 2798 2796 2793 2791 2789
2940 2935 2930 2925 2920 2915 2910 2906 2901 2896 2892 2888 2883 2879 2874 2870 2865 2860 2856 2855 2849 2845 2840 2835 2831 2828 2825 2821 2818 2815 2813 2810 2807 2804 2801 2799 2797 2796 2794 2792 2789 2787 2784 2782
2930 2925 2920 2915 2910 2905 2901 2897 2892 2888 2883 2879 2875 2871 2867 2862 2860 2856 2851 2846 2842 2837 2832 2827 2824 2821 2817 2814 2811 2808 2806 2804 2801 2798 2795 2792 2791 2790 2788 2786 2783 2781 2778 2776
2920 2915 2911 2906 2902 2897 2892 2888 2883 2880 2876 2873 2869 2866 2862 2858 2852 2849 2844 2840 2835 2830 2826 2822 2819 2816 2812 2809 2807 2804 2802 2800 2797 2794 2792 2789 2787 2785 2782 2780 2777 2775 2773 2771
2912 2907 2903 2899 2894 2889 2885 2880 2876 2872 2868 2866 2863 2859 2856 2852 2848 2844 2840 2835 2830 2825 2821 2818 2815 2813 2810 2807 2805 2803 2800 2798 2795 2792 2789 2786 2783 2781 2778 2776 2774 2771 2769 2767
2906 2901 2897 2893 2889 2883 2878 2873 2869 2866 2863 2859 2857 2854 2851 2848 2844 2840 2836 2832 2828 2824 2820 2817 2814 2812 2809 2807 2805 2802 2799 2796 2793 2790 2787 2784 2781 2778 2776 2773 2771 2769 2767 2765
Wind_Speed
24 24 26 28 28 28 31 33 36 43 42 38 43 42 44 35 25 22 21 22 20 20 23 24 25 26 27 28 28 30 30 30 29 30 32 33 33 33 33 35 36 38 38 38
34 32 31 34 33 37 40 41 47 46 48 42 42 34 25 25 22 17 16 15 13 9 9 12 16 19 19 21 23 25 26 27 29 33 36 37 37 37 37 37 40 41 42 41
24 27 24 20 35 33 37 40 39 36 31 23 23 20 23 20 17 16 15 14 15 16 18 19 18 17 18 19 19 20 22 26 32 37 41 42 44 44 43 42 42 43 43 42
18 16 6 16 15 15 14 18 19 17 19 21 22 19 20 16 17 19 21 23 25 27 29 31 32 31 28 26 27 27 27 30 35 41 46 47 47 48 48 48 46 43 44 41
10 15 26 30 22 17 15 17 17 16 17 17 16 17 19 19 22 27 30 32 34 35 38 39 40 40 35 28 26 28 33 36 40 45 48 50 52 54 55 54 49 45 45 45
18 7 6 4 9 8 13 19 17 21 21 22 23 24 25 29 32 33 36 40 40 40 43 41 38 37 36 35 35 35 36 39 41 44 51 55 57 57 55 55 46 43 45 46
32 20 19 21 15 14 16 17 22 23 25 26 26 29 33 34 37 40 43 45 45 45 42 40 40 41 41 43 42 42 44 43 46 50 53 55 57 59 54 58 56 48 46 46
22 15 15 23 22 24 26 28 28 26 26 28 33 37 40 42 41 37 36 41 43 40 39 39 39 40 41 43 45 47 48 49 52 57 58 53 54 56 55 50 48 47 46 48
19 15 19 17 15 19 25 27 28 30 36 39 38 35 32 33 36 37 35 33 33 32 31 32 34 36 38 39 40 42 46 50 51 51 47 45 45 46 50 47 43 46 47 45
24 27 26 28 30 35 29 31 39 39 30 34 31 29 29 29 28 29 28 27 27 28 29 30 33 34 36 36 36 36 37 38 39 41 41 40 39 39 41 44 45 43 45 44
31 33 36 40 40 37 35 35 32 26 23 22 21 22 23 22 22 24 25 26 27 29 30 31 33 34 35 36 37 38 38 38 37 36 35 35 35 36 35 36 39 43 43 38
34 30 29 32 33 33 36 29 20 16 15 19 20 21 22 23 24 27 29 32 33 34 36 38 39 40 40 40 39 40 41 40 39 39 37 36 37 39 38 39 37 36 36 39
23 26 30 32 36 30 18 14 14 15 16 17 19 24 27 29 30 32 34 37 40 42 43 44 45 45 42 40 39 39 39 40 39 39 40 41 39 37 37 36 36 37 36 37
30 27 24 16 11 9 10 13 16 18 20 23 26 28 32 36 38 40 42 43 44 45 47 47 46 45 42 41 43 43 42 41 40 40 40 40 41 39 38 38 39 36 34 35
14 13 8 7 10 13 15 17 20 22 25 27 30 35 38 40 42 44 45 44 44 44 44 45 45 44 42 42 42 41 39 38 36 36 35 36 38 38 38 38 38 39 39 38
5 5 8 11 15 18 20 21 26 28 32 35 38 40 42 42 42 40 39 40 43 44 42 42 42 38 37 37 37 37 36 35 35 36 37 38 39 39 37 37 37 37 38 37
11 11 14 17 20 22 25 28 33 37 39 40 42 42 41 40 41 45 46 47 49 49 48 48 46 43 41 40 39 38 36 35 35 37 38 38 37 36 36 36 36 37 35 32
15 17 20 23 26 29 32 34 38 40 42 42 41 42 44 46 47 49 48 47 46 45 44 43 43 44 44 40 38 38 37 37 37 38 37 36 36 36 35 35 36 35 32 30
19 23 26 28 31 34 38 40 41 42 43 43 45 47 47 47 46 46 44 44 41 40 37 36 36 36 37 36 38 40 40 40 39 38 36 35 34 34 34 34 33 32 30 29
27 29 31 34 35 37 41 42 44 45 45 46 47 47 47 46 44 43 44 42 39 40 41 38 36 35 34 33 34 36 37 37 35 34 34 33 32 31 28 27 27 27 27 27
34 35 36 39 42 42 44 44 45 45 45 45 45 46 45 43 42 42 40 39 36 37 37 37 35 33 32 32 32 31 31 31 32 32 31 30 28 24 26 26 26 27 26 25
35 38 40 41 42 43 42 42 42 43 43 41 39 38 38 37 36 34 34 36 37 37 38 37 34 31 29 28 28 29 30 30 30 27 32 32 26 23 25 26 24 23 23 23
38 36 40 42 40 39 37 36 36 36 36 35 34 33 33 32 32 34 36 34 36 35 34 33 32 30 28 28 29 29 29 28 30 30 30 27 20 21 24 22 23 23 24 24
38 40 37 36 34 34 34 32 31 30 29 28 28 28 28 30 30 29 31 32 32 30 28 27 25 25 25 25 25 23 22 22 22 21 19 16 13 18 22 25 27 26 24 23
32 33 32 31 31 32 32 31 30 28 26 25 24 24 24 24 28 28 28 27 26 26 24 21 19 19 18 16 15 14 15 15 15 16 15 15 17 18 19 19 20 20 19 18
31 30 29 29 30 31 31 30 29 27 26 23 20 22 21 22 22 23 23 24 23 22 19 16 15 13 12 12 11 12 13 15 16 16 17 17 17 16 15 15 15 14 14 15
27 29 27 25 27 29 29 28 28 25 23 22 20 18 18 18 18 19 21 21 19 17 15 14 13 12 12 11 12 13 14 16 17 16 15 15 14 14 13 12 12 11 11 11
Wind_Direction
287 282 280 277 273 268 255 263 253 274 274 286 286 293 299 296 295 286 281 285 290 292 290 289 285 281 279 274 274 277 270 265 265 268 275 281 286 288 292 297 300 306 308 303
290 287 280 276 272 268 266 266 267 270 269 277 283 286 282 290 290 282 279 279 278 282 299 311 305 293 285 282 283 280 273 267 267 270 274 279 283 284 287 290 294 299 304 300
276 287 286 275 274 270 268 268 270 270 281 272 266 271 273 272 275 275 272 269 276 285 300 306 305 300 298 294 291 288 284 280 275 273 275 277 279 281 284 286 288 297 300 293
273 279 259 273 263 253 250 259 255 257 253 256 259 263 264 277 278 276 277 278 283 292 296 303 307 306 303 294 285 275 272 269 267 268 270 273 276 279 281 281 283 290 292 287
251 233 271 270 260 263 254 260 256 254 250 251 249 245 260 275 286 292 292 296 303 305 303 302 302 304 303 293 288 285 280 278 276 273 272 273 275 276 278 280 283 294 285 281
236 237 246 232 220 218 238 243 245 246 251 258 266 271 272 279 287 294 304 308 306 308 307 305 303 302 300 299 297 295 293 290 285 281 280 277 278 277 280 283 281 276 280 280
231 243 261 249 244 239 244 253 246 251 257 269 282 292 296 297 301 304 305 305 304 302 299 299 297 295 295 293 290 288 286 283 283 280 278 280 284 288 289 290 282 268 267 268
226 235 263 261 255 247 255 258 260 261 267 279 289 297 302 304 303 298 298 303 302 300 300 301 299 294 291 289 287 284 279 276 278 281 282 285 288 290 291 278 272 269 272 270
236 247 255 261 243 251 251 256 260 267 286 298 301 300 300 304 305 304 308 306 303 303 302 300 298 295 293 292 290 287 284 285 286 286 290 291 292 291 281 271 270 268 264 261
245 248 256 268 282 292 287 279 290 299 296 297 296 296 301 302 302 303 304 305 305 306 304 302 300 301 301 302 300 296 293 292 293 294 294 292 289 287 286 282 277 271 268 263
270 276 284 288 288 288 284 287 291 299 304 303 303 301 301 302 303 303 303 304 305 306 306 305 303 302 304 305 305 303 304 306 306 305 305 305 304 302 299 295 288 280 276 277
279 281 273 272 271 280 281 282 287 291 290 291 294 297 301 303 304 304 305 304 302 302 302 302 302 301 302 303 303 303 303 302 302 303 305 304 302 301 296 296 296 297 299 292
264 286 280 281 280 273 278 289 284 279 283 291 294 301 304 303 301 300 301 302 301 300 300 299 298 297 300 301 300 299 299 298 297 297 297 296 293 292 291 289 287 288 287 285
282 276 265 267 292 296 270 267 270 280 289 295 298 300 302 302 301 299 300 300 299 297 296 297 299 299 300 300 298 297 297 298 299 298 295 293 292 291 290 290 289 288 284 282
281 295 291 271 261 264 269 277 282 289 293 295 296 299 300 298 297 297 298 298 297 295 295 296 296 297 298 296 297 299 298 298 299 300 300 297 295 293 292 291 290 291 291 290
268 260 255 252 257 266 276 287 293 297 298 298 299 299 299 298 299 300 302 302 300 299 298 298 297 299 297 299 301 300 297 297 298 299 299 299 296 292 290 290 291 292 294 294
271 269 266 265 268 271 279 290 296 298 299 301 303 304 304 304 303 304 304 303 300 299 298 295 296 296 296 299 301 298 295 295 297 297 299 299 296 292 291 292 294 296 296 297
282 290 294 300 304 303 301 299 300 302 303 304 305 304 303 302 303 304 305 304 302 305 302 299 295 291 291 292 290 290 293 295 297 300 300 298 295 293 293 294 296 296 296 294
318 312 307 303 302 301 301 300 301 301 303 303 302 302 302 303 304 303 304 304 310 309 307 306 303 296 292 290 289 289 291 294 296 298 298 297 294 294 295 295 295 294 294 294
309 307 304 304 303 302 302 302 301 301 301 301 301 301 302 302 302 301 302 303 307 309 310 309 306 301 297 294 292 292 293 294 295 296 298 297 297 297 298 297 296 294 292 291
310 308 305 304 303 303 301 300 299 299 300 300 301 301 301 300 301 302 303 304 309 307 309 309 310 309 302 298 297 297 296 296 296 298 299 299 298 299 299 295 293 293 292 292
303 303 303 304 303 301 300 301 301 301 301 303 303 304 304 303 305 305 305 306 308 309 308 307 307 305 304 302 299 298 299 300 301 296 293 298 295 288 298 302 298 299 298 297
306 305 305 307 307 307 306 306 305 306 305 304 304 306 307 308 309 310 309 310 309 310 309 309 308 308 306 301 299 298 299 299 299 300 297 298 289 284 298 303 303 303 301 299
306 306 308 309 309 309 310 311 310 310 309 309 310 310 309 307 307 309 309 311 312 312 313 312 310 308 306 304 302 303 304 305 307 310 309 306 294 282 286 292 298 298 299 299
311 312 313 311 311 312 314 315 314 314 312 312 310 308 309 311 313 316 317 320 322 320 319 315 313 316 319 318 319 318 319 322 325 327 325 317 309 305 303 302 303 304 304 304
315 315 316 316 314 315 315 314 314 315 314 315 317 315 315 316 318 321 325 329 332 332 332 330 328 331 330 329 333 335 336 337 336 333 329 326 321 318 315 310 309 310 313 317
318 317 315 313 313 315 316 315 315 315 313 315 319 318 319 325 327 332 339 342 343 345 346 347 347 347 347 349 348 345 344 343 339 338 337 337 336 336 335 333 332 332 332 331